Time,TemperatureF,DewpointF,PressureIn,WindDirection,WindDirectionDegrees,WindSpeedMPH,WindSpeedGustMPH,Humidity,HourlyPrecipIn,Conditions,Clouds,dailyrainin,SoftwareType,DateUTC
2013-02-04 00:15:00,19.4,15.0,29.77,WSW,250,6.0,13.0,84,0.00,,,0.00,weatherlink.com 1.10,2013-02-04 05:15:00,
2013-02-04 00:30:00,19.1,16.0,29.76,West,275,6.0,12.0,87,0.00,,,0.00,weatherlink.com 1.10,2013-02-04 05:30:00,
2013-02-04 00:45:00,18.8,16.0,29.77,WSW,257,5.0,9.0,89,0.00,,,0.00,weatherlink.com 1.10,2013-02-04 05:45:00,
2013-02-04 01:00:00,18.7,15.0,29.77,WSW,253,8.0,12.0,86,0.00,,,0.00,weatherlink.com 1.10,2013-02-04 06:00:00,
2013-02-04 01:15:00,18.9,14.0,29.77,WNW,299,10.0,14.0,80,0.00,,,0.00,weatherlink.com 1.10,2013-02-04 06:15:00,
2013-02-04 01:30:00,18.6,13.0,29.77,WSW,257,8.0,11.0,80,0.00,,,0.00,weatherlink.com 1.10,2013-02-04 06:30:00,
2013-02-04 01:45:00,18.5,13.0,29.78,WSW,257,13.0,18.0,79,0.00,,,0.00,weatherlink.com 1.10,2013-02-04 06:45:00,
2013-02-04 02:00:00,18.4,13.0,29.78,WSW,251,8.0,15.0,78,0.00,,,0.00,weatherlink.com 1.10,2013-02-04 07:00:00,
2013-02-04 02:15:00,18.3,13.0,29.78,West,267,12.0,14.0,79,0.00,,,0.00,weatherlink.com 1.10,2013-02-04 07:15:00,
2013-02-04 02:30:00,18.4,13.0,29.79,West,274,6.0,15.0,79,0.00,,,0.00,weatherlink.com 1.10,2013-02-04 07:30:00,
2013-02-04 02:45:00,18.4,13.0,29.78,WSW,252,9.0,19.0,80,0.00,,,0.00,weatherlink.com 1.10,2013-02-04 07:45:00,
2013-02-04 03:00:00,18.6,13.0,29.79,West,270,9.0,19.0,80,0.00,,,0.00,weatherlink.com 1.10,2013-02-04 08:00:00,
2013-02-04 03:15:00,18.6,13.0,29.78,WSW,248,15.0,18.0,79,0.00,,,0.00,weatherlink.com 1.10,2013-02-04 08:15:00,
2013-02-04 03:30:00,18.8,13.0,29.78,WNW,293,15.0,16.0,79,0.00,,,0.00,weatherlink.com 1.10,2013-02-04 08:30:00,
2013-02-04 03:45:00,18.7,13.0,29.79,WNW,284,8.0,19.0,79,0.00,,,0.00,weatherlink.com 1.10,2013-02-04 08:45:00,
2013-02-04 04:00:00,18.6,14.0,29.79,WSW,250,15.0,20.0,81,0.00,,,0.00,weatherlink.com 1.10,2013-02-04 09:00:00,
2013-02-04 04:15:00,18.2,13.0,29.79,WSW,255,9.0,15.0,81,0.00,,,0.00,weatherlink.com 1.10,2013-02-04 09:15:00,
2013-02-04 04:30:00,18.2,13.0,29.80,WSW,237,11.0,15.0,81,0.00,,,0.00,weatherlink.com 1.10,2013-02-04 09:30:00,
2013-02-04 04:45:00,18.7,13.0,29.81,SSW,211,11.0,18.0,78,0.00,,,0.00,weatherlink.com 1.10,2013-02-04 09:45:00,
2013-02-04 05:00:00,18.8,13.0,29.81,WSW,257,16.0,18.0,77,0.00,,,0.00,weatherlink.com 1.10,2013-02-04 10:00:00,
2013-02-04 05:15:00,19.2,13.0,29.82,WNW,294,13.0,19.0,75,0.00,,,0.00,weatherlink.com 1.10,2013-02-04 10:15:00,
2013-02-04 05:30:00,19.1,12.0,29.82,WNW,297,14.0,21.0,73,0.00,,,0.00,weatherlink.com 1.10,2013-02-04 10:30:00,
2013-02-04 05:45:00,18.8,12.0,29.82,West,271,10.0,20.0,74,0.00,,,0.00,weatherlink.com 1.10,2013-02-04 10:45:00,
2013-02-04 06:00:00,18.5,12.0,29.82,WNW,285,10.0,13.0,74,0.00,,,0.00,weatherlink.com 1.10,2013-02-04 11:00:00,
2013-02-04 06:15:00,18.6,12.0,29.83,WNW,296,14.0,18.0,74,0.00,,,0.00,weatherlink.com 1.10,2013-02-04 11:15:00,
2013-02-04 06:30:00,18.8,12.0,29.83,West,273,10.0,21.0,73,0.00,,,0.00,weatherlink.com 1.10,2013-02-04 11:30:00,
2013-02-04 06:45:00,18.7,12.0,29.83,NW,312,13.0,20.0,75,0.00,,,0.00,weatherlink.com 1.10,2013-02-04 11:45:00,
2013-02-04 07:00:00,18.5,12.0,29.83,West,275,9.0,20.0,74,0.00,,,0.00,weatherlink.com 1.10,2013-02-04 12:00:00,
2013-02-04 07:15:00,18.2,12.0,29.84,NW,314,12.0,20.0,75,0.00,,,0.00,weatherlink.com 1.10,2013-02-04 12:15:00,
2013-02-04 07:30:00,18.2,11.0,29.84,NW,310,14.0,19.0,73,0.00,,,0.00,weatherlink.com 1.10,2013-02-04 12:30:00,
2013-02-04 07:45:00,18.2,11.0,29.85,West,271,10.0,21.0,74,0.00,,,0.00,weatherlink.com 1.10,2013-02-04 12:45:00,
2013-02-04 08:00:00,18.4,11.0,29.85,WNW,286,12.0,18.0,74,0.00,,,0.00,weatherlink.com 1.10,2013-02-04 13:00:00,
2013-02-04 08:15:00,18.5,11.0,29.86,WNW,287,14.0,20.0,72,0.00,,,0.00,weatherlink.com 1.10,2013-02-04 13:15:00,
2013-02-04 08:30:00,18.8,11.0,29.86,WNW,288,10.0,19.0,71,0.00,,,0.00,weatherlink.com 1.10,2013-02-04 13:30:00,
2013-02-04 08:45:00,19.2,10.0,29.86,West,276,22.0,27.0,68,0.00,,,0.00,weatherlink.com 1.10,2013-02-04 13:45:00,
2013-02-04 09:00:00,19.4,10.0,29.86,West,262,11.0,27.0,67,0.00,,,0.00,weatherlink.com 1.10,2013-02-04 14:00:00,
2013-02-04 09:15:00,19.6,10.0,29.87,WNW,292,14.0,27.0,67,0.00,,,0.00,weatherlink.com 1.10,2013-02-04 14:15:00,
2013-02-04 09:31:00,19.8,10.0,29.86,WNW,284,8.0,28.0,67,0.00,,,0.00,weatherlink.com 1.10,2013-02-04 14:31:00,
2013-02-04 09:46:00,19.4,9.0,29.87,WNW,292,13.0,24.0,65,0.00,,,0.00,weatherlink.com 1.10,2013-02-04 14:46:00,
2013-02-04 10:01:00,19.2,9.0,29.86,WNW,297,18.0,21.0,65,0.00,,,0.00,weatherlink.com 1.10,2013-02-04 15:01:00,
2013-02-04 10:16:00,19.3,9.0,29.87,NW,310,14.0,22.0,64,0.00,,,0.00,weatherlink.com 1.10,2013-02-04 15:16:00,
2013-02-04 10:31:00,19.6,10.0,29.87,WNW,298,16.0,29.0,67,0.00,,,0.00,weatherlink.com 1.10,2013-02-04 15:31:00,
2013-02-04 10:46:00,19.7,10.0,29.86,West,279,19.0,26.0,66,0.00,,,0.00,weatherlink.com 1.10,2013-02-04 15:46:00,
2013-02-04 11:01:00,19.6,10.0,29.87,WNW,296,10.0,23.0,67,0.00,,,0.00,weatherlink.com 1.10,2013-02-04 16:01:00,
2013-02-04 11:16:00,20.0,11.0,29.87,WNW,290,14.0,20.0,69,0.00,,,0.00,weatherlink.com 1.10,2013-02-04 16:16:00,
2013-02-04 11:31:00,20.3,11.0,29.87,West,262,15.0,22.0,66,0.00,,,0.00,weatherlink.com 1.10,2013-02-04 16:31:00,
2013-02-04 11:46:00,19.8,10.0,29.86,WNW,300,9.0,19.0,66,0.00,,,0.00,weatherlink.com 1.10,2013-02-04 16:46:00,
2013-02-04 12:01:00,19.7,10.0,29.87,West,269,13.0,22.0,66,0.00,,,0.00,weatherlink.com 1.10,2013-02-04 17:01:00,
2013-02-04 12:16:00,19.8,11.0,29.86,West,271,14.0,20.0,68,0.00,,,0.00,weatherlink.com 1.10,2013-02-04 17:16:00,
2013-02-04 12:31:00,20.4,12.0,29.86,West,269,11.0,15.0,70,0.00,,,0.00,weatherlink.com 1.10,2013-02-04 17:31:00,
2013-02-04 12:46:00,20.8,11.0,29.85,WNW,292,11.0,16.0,66,0.00,,,0.00,weatherlink.com 1.10,2013-02-04 17:46:00,
2013-02-04 13:16:00,20.4,11.0,29.84,WNW,299,14.0,19.0,67,0.00,,,0.00,weatherlink.com 1.10,2013-02-04 18:16:00,
2013-02-04 13:31:00,20.4,11.0,29.84,NW,305,7.0,19.0,68,0.00,,,0.00,weatherlink.com 1.10,2013-02-04 18:31:00,
2013-02-04 13:46:00,20.0,11.0,29.84,NW,309,8.0,14.0,67,0.00,,,0.00,weatherlink.com 1.10,2013-02-04 18:46:00,
2013-02-04 14:01:00,20.0,10.0,29.84,WNW,288,8.0,18.0,65,0.00,,,0.00,weatherlink.com 1.10,2013-02-04 19:01:00,
2013-02-04 14:16:00,20.0,11.0,29.84,WNW,290,12.0,16.0,68,0.00,,,0.00,weatherlink.com 1.10,2013-02-04 19:16:00,
2013-02-04 14:31:00,20.0,11.0,29.84,NW,309,14.0,18.0,69,0.00,,,0.00,weatherlink.com 1.10,2013-02-04 19:31:00,
2013-02-04 14:46:00,20.0,12.0,29.84,NW,318,7.0,13.0,70,0.00,,,0.00,weatherlink.com 1.10,2013-02-04 19:46:00,
2013-02-04 15:01:00,20.0,13.0,29.85,NNW,333,10.0,14.0,73,0.00,,,0.00,weatherlink.com 1.10,2013-02-04 20:01:00,
2013-02-04 15:16:00,19.9,13.0,29.85,NNW,342,8.0,12.0,74,0.00,,,0.00,weatherlink.com 1.10,2013-02-04 20:16:00,
2013-02-04 15:31:00,19.8,13.0,29.85,WNW,290,9.0,11.0,76,0.00,,,0.00,weatherlink.com 1.10,2013-02-04 20:31:00,
2013-02-04 15:46:00,20.2,13.0,29.85,West,280,10.0,11.0,75,0.00,,,0.00,weatherlink.com 1.10,2013-02-04 20:46:00,
2013-02-04 16:01:00,20.4,14.0,29.85,NW,315,6.0,10.0,75,0.00,,,0.00,weatherlink.com 1.10,2013-02-04 21:01:00,
2013-02-04 16:16:00,20.2,14.0,29.85,NNW,327,9.0,10.0,76,0.00,,,0.00,weatherlink.com 1.10,2013-02-04 21:16:00,
2013-02-04 16:31:00,20.2,14.0,29.85,WNW,294,7.0,11.0,77,0.00,,,0.00,weatherlink.com 1.10,2013-02-04 21:31:00,
2013-02-04 16:46:00,20.2,13.0,29.84,West,267,6.0,10.0,75,0.00,,,0.00,weatherlink.com 1.10,2013-02-04 21:46:00,
2013-02-04 17:01:00,20.0,13.0,29.84,West,279,6.0,13.0,74,0.00,,,0.00,weatherlink.com 1.10,2013-02-04 22:01:00,
2013-02-04 17:16:00,20.0,13.0,29.84,West,261,7.0,11.0,75,0.00,,,0.00,weatherlink.com 1.10,2013-02-04 22:16:00,
2013-02-04 17:31:00,20.0,13.0,29.84,WNW,296,5.0,12.0,75,0.00,,,0.00,weatherlink.com 1.10,2013-02-04 22:31:00,
2013-02-04 17:46:00,19.9,13.0,29.84,NW,304,5.0,12.0,74,0.00,,,0.00,weatherlink.com 1.10,2013-02-04 22:46:00,
2013-02-04 18:01:00,19.9,14.0,29.84,WNW,292,5.0,11.0,76,0.00,,,0.00,weatherlink.com 1.10,2013-02-04 23:01:00,
2013-02-04 18:16:00,20.0,14.0,29.84,NNW,342,6.0,8.0,77,0.00,,,0.00,weatherlink.com 1.10,2013-02-04 23:16:00,
2013-02-04 18:31:00,19.7,14.0,29.84,NNW,339,5.0,12.0,77,0.00,,,0.00,weatherlink.com 1.10,2013-02-04 23:31:00,
2013-02-04 18:46:00,19.6,13.0,29.85,WNW,292,6.0,9.0,76,0.00,,,0.00,weatherlink.com 1.10,2013-02-04 23:46:00,
2013-02-04 19:01:00,19.6,14.0,29.85,WNW,292,5.0,8.0,77,0.00,,,0.00,weatherlink.com 1.10,2013-02-05 00:01:00,
2013-02-04 19:16:00,19.7,13.0,29.85,NW,309,4.0,7.0,76,0.00,,,0.00,weatherlink.com 1.10,2013-02-05 00:16:00,
2013-02-04 19:31:00,19.6,13.0,29.85,WNW,296,1.0,7.0,75,0.00,,,0.00,weatherlink.com 1.10,2013-02-05 00:31:00,
2013-02-04 19:46:00,19.6,13.0,29.85,WNW,288,4.0,6.0,75,0.00,,,0.00,weatherlink.com 1.10,2013-02-05 00:46:00,
2013-02-04 20:01:00,19.7,13.0,29.85,North,355,2.0,7.0,76,0.00,,,0.00,weatherlink.com 1.10,2013-02-05 01:01:00,
2013-02-04 20:16:00,19.7,13.0,29.85,North,9,5.0,6.0,76,0.00,,,0.00,weatherlink.com 1.10,2013-02-05 01:16:00,
2013-02-04 20:31:00,19.6,14.0,29.85,North,10,4.0,7.0,77,0.00,,,0.00,weatherlink.com 1.10,2013-02-05 01:31:00,
2013-02-04 20:46:00,19.6,14.0,29.85,North,5,4.0,8.0,78,0.00,,,0.00,weatherlink.com 1.10,2013-02-05 01:46:00,
2013-02-04 21:01:00,19.6,14.0,29.85,North,360,0.0,7.0,79,0.00,,,0.00,weatherlink.com 1.10,2013-02-05 02:01:00,
2013-02-04 21:16:00,19.7,14.0,29.85,North,360,4.0,6.0,79,0.00,,,0.00,weatherlink.com 1.10,2013-02-05 02:16:00,
2013-02-04 21:31:00,19.7,15.0,29.85,NNW,343,4.0,6.0,80,0.00,,,0.00,weatherlink.com 1.10,2013-02-05 02:31:00,
2013-02-04 21:46:00,19.8,15.0,29.85,North,5,5.0,6.0,81,0.00,,,0.00,weatherlink.com 1.10,2013-02-05 02:46:00,
2013-02-04 22:01:00,19.7,15.0,29.85,North,5,1.0,4.0,81,0.00,,,0.00,weatherlink.com 1.10,2013-02-05 03:01:00,
2013-02-04 22:16:00,19.7,15.0,29.85,NNW,346,0.0,5.0,81,0.00,,,0.00,weatherlink.com 1.10,2013-02-05 03:16:00,
2013-02-04 22:31:00,19.7,15.0,29.85,North,355,1.0,4.0,82,0.00,,,0.00,weatherlink.com 1.10,2013-02-05 03:31:00,
2013-02-04 22:46:00,19.7,15.0,29.85,North,355,0.0,1.0,82,0.00,,,0.00,weatherlink.com 1.10,2013-02-05 03:46:00,
2013-02-04 23:01:00,19.7,15.0,29.85,North,355,0.0,1.0,83,0.00,,,0.00,weatherlink.com 1.10,2013-02-05 04:01:00,
2013-02-04 23:16:00,19.9,16.0,29.85,North,355,0.0,0.0,83,0.00,,,0.00,weatherlink.com 1.10,2013-02-05 04:16:00,
2013-02-04 23:31:00,19.9,16.0,29.85,West,281,3.0,3.0,84,0.00,,,0.00,weatherlink.com 1.10,2013-02-05 04:31:00,
2013-02-04 23:46:00,19.8,16.0,29.85,West,277,4.0,6.0,84,0.00,,,0.00,weatherlink.com 1.10,2013-02-05 04:46:00,